#timestamp,LO_Frequency,Hit,StdDev 
1526756415.5,286046998.9,N
1526756435.4,286046998.3,N
1526756455.2,286046998.1,N
1526756475.1,286047000.3,N
1526756476.0,286047000.3,N
1526756495.8,286047000.1,N
1526756515.6,286047002.6,N
1526756535.5,286047001.5,N
1526756555.3,286047000.3,N
1526756575.1,286046998.4,N
1526756595.9,286046998.5,N
1526756615.7,286046996.6,N
1526756635.6,286046999.4,N
1526756655.4,286047000.5,N
1526756675.2,286047002.7,N
1526756695.1,286047002.4,N
1526756696.0,286047002.4,N
1526756715.8,286047000.8,N
1526756735.6,286047001.0,N
1526756755.5,286046998.7,N
1526756775.3,286046998.5,N
1526756795.2,286046996.9,N
1526756815.0,286046999.5,N
1526756815.9,286046999.5,N
1526756835.7,286046997.2,N
1526756855.6,286046998.5,N
1526756875.4,286047001.1,N
1526756895.3,286047001.2,N
1526756915.1,286047000.9,N
1526756916.0,286047000.9,N
1526756935.8,286047000.0,N
1526756955.7,286046998.3,N
1526757005.5,286047002.1,E
1526757015.5,286047000.8,N
1526757035.3,286046996.8,P
1526757055.1,286046996.5,N
1526757075.9,286046999.4,N
1526757095.7,286046998.8,N
1526757115.5,286046999.5,N
1526757135.4,286046997.4,N
1526757155.2,286046997.1,N
1526757175.1,286046999.1,N
1526757176.0,286046999.1,N
1526757195.8,286046999.1,N
1526757215.6,286047001.0,N
1526757235.5,286047001.1,N
1526757255.3,286047001.1,N
1526757275.1,286046999.5,N
1526757295.9,286046998.0,N
1526757315.7,286046996.8,N
1526757335.6,286046997.6,N
1526757355.4,286046995.6,N
1526757375.2,286046997.1,N
1526757395.1,286046997.8,N
1526757396.0,286046997.8,N
1526757415.8,286046999.2,N
1526757435.7,286046996.7,N
1526757455.5,286046996.7,N
1526757475.3,286046997.4,N
1526757495.2,286046997.9,N
1526757515.9,286046995.2,Y
1526757535.7,286046998.0,P
1526757555.6,286046995.6,P
1526757575.4,286046995.3,P
1526757595.3,286046995.2,Y
1526757615.1,286046998.8,P
1526757616.0,286046998.8,N
1526757635.8,286046998.3,N
1526757655.7,286047000.5,N
1526757675.5,286047001.2,N
1526757695.3,286047000.3,N
1526757715.2,286047002.0,N
1526757735.0,286047002.1,N
1526757735.9,286047002.1,N
1526757755.8,286047003.7,N
1526757775.6,286047004.3,N
1526757795.4,286047004.2,N
1526757815.3,286047003.6,N
1526757835.1,286047006.0,N
1526757855.8,286047005.5,N
1526757875.7,286047005.0,N
1526757895.5,286047004.0,N
1526757915.4,286047005.2,N
1526757935.2,286047003.1,N
1526757955.0,286047002.9,N
1526757955.9,286047002.9,N
1526757975.8,286047004.1,N
1526757995.6,286047003.1,N
1526758015.5,286047004.4,N
1526758035.3,286047003.0,N
1526758055.1,286047003.6,N
1526758075.9,286047002.3,N
1526758095.7,286046999.7,N
1526758115.6,286047000.6,N
1526758135.4,286047001.1,N
1526758155.2,286047001.0,N
1526758175.1,286047000.9,N
1526758176.0,286047000.9,N
1526758195.8,286047000.2,N
1526758215.7,286047000.5,N
1526758235.5,286047002.0,N
1526758255.3,286047003.7,N
1526758275.2,286047003.3,N
1526758295.0,286047005.8,Y
1526758295.9,286047005.8,P
1526758315.8,286047004.1,N
1526758335.6,286047001.7,N
1526758355.4,286047001.8,N
1526758375.3,286047003.4,N
1526758395.1,286047003.8,N
1526758415.8,286047003.0,N
1526758435.7,286047003.9,Y
1526758455.5,286047000.2,P
1526758475.4,286047002.2,N
1526758495.2,286047002.5,N
1526758515.0,286047001.8,N
1526758515.9,286047001.8,N
1526758535.8,286047002.0,N
1526758555.6,286047001.6,N
1526758575.4,286047004.0,Y
1526758595.3,286047001.2,P
1526758615.1,286047000.8,N
1526758635.9,286046998.8,N
1526758655.7,286047000.6,N
1526758675.5,286047001.1,N
1526758695.4,286047002.1,N
1526758715.2,286046999.9,N
1526758735.1,286047000.8,N
1526758736.0,286047000.8,N
1526758755.8,286047002.8,Y
1526758775.6,286047002.8,P
1526758795.5,286047001.2,N
1526758815.3,286047000.3,N
1526758835.1,286046998.3,N
1526758855.9,286046999.5,N
1526758875.7,286046998.4,N
1526758895.6,286046997.0,N
1526758915.4,286047001.1,N
1526758935.2,286046999.6,N
1526758955.1,286046997.6,N
1526758956.0,286046997.6,N
1526758975.9,286046997.5,N
1526758995.7,286046996.8,N
1526759015.5,286046997.5,N
1526759035.4,286046998.0,N
1526759055.2,286046995.5,N
1526759075.0,286046999.5,N
1526759075.9,286046999.5,N
1526759095.8,286046997.2,N
1526759115.6,286046995.0,N
1526759135.5,286046996.2,N
1526759155.3,286046992.4,Y
1526759175.1,286046995.9,P
1526759195.9,286046997.4,N
1526759215.7,286046995.4,P
1526759235.6,286046996.3,Y
1526759255.4,286047000.3,P
1526759275.2,286047000.9,N
1526759295.1,286046998.6,N
1526759296.0,286046998.6,N
1526759315.8,286047000.8,N
1526759335.7,286047000.2,N
1526759355.5,286046999.7,N
1526759375.3,286047000.9,N
1526759395.2,286046999.1,N
1526759415.0,286046998.6,N
1526759415.9,286046998.6,N
1526759435.8,286047002.8,N
1526759455.6,286047000.7,N
1526759475.4,286046998.6,N
1526759495.3,286047000.6,N
1526759515.1,286046997.5,N
1526759535.8,286046997.1,N
1526759555.7,286046997.1,N
1526759575.5,286046998.9,N
1526759595.4,286046998.2,N
1526759615.2,286046999.5,N
1526759635.0,286046998.7,N
1526759635.9,286046998.7,N
1526759655.8,286046997.1,N
1526759675.6,286046996.9,N
1526759695.4,286046996.6,N
1526759715.3,286046997.0,N
1526759735.1,286046997.0,N
1526759755.9,286046999.2,N
1526759775.7,286046998.9,N
1526759795.5,286046997.1,N
1526759815.4,286046998.8,N
1526759835.2,286046998.6,N
1526759855.0,286046997.0,N
1526759855.9,286046997.0,N
1526759875.8,286046996.6,N
1526759895.6,286046996.6,N
1526759915.5,286046996.5,N
1526759935.3,286046996.6,N
1526759955.1,286046996.7,N
1526759975.9,286046999.0,N
1526759995.7,286046999.4,N
